Change the Weather History Date:

Friday, October 11, 2013

  Actual Average Record
Temperature  
Mean Temperature 60 °F -  
Max Temperature 69 °F 56 °F 83 °F (1976)
Min Temperature 52 °F 35 °F 19 °F (2006)
Degree Days  
Heating Degree Days 4    
Growing Degree Days 10 (Base 50)    
Moisture  
Dew Point 53 °F    
Average Humidity 79    
Maximum Humidity 94    
Minimum Humidity 60    
Precipitation  
Precipitation 0.31 in - - ()
Sea Level Pressure  
Sea Level Pressure 29.63 in    
Wind  
Wind Speed 15 mph (SE)    
Max Wind Speed 28 mph    
Max Gust Speed 38 mph    
Visibility 9 miles    
Events Rain    
Averages and records for this station are not official NWS values.
T = Trace of Precipitation, MM = Missing Value Source: NWS Daily Summary

Daily Weather History Graph

Daily Weather History Graph

Search for Another Location

Airport or City:

Trip Planner

Search our weather history database for the weather conditions in past years. The results will help you decide how hot, cold, wet, or windy it might be!

Date:

Astronomy

Oct. 11, 2013 Rise Set
Actual Time 7:33 AM CDT 6:40 PM CDT
Civil Twilight 7:02 AM CDT 7:10 PM CDT
Nautical Twilight 6:27 AM CDT 7:45 PM CDT
Astronomical Twilight 5:51 AM CDT 8:20 PM CDT
Moon 2:27 PM CDT (10/11) No Moon Set
Length of Visible Light 12h 07m
Length of Day
11h 06m
Waxing Crescent, 47% of the Moon is Illuminated
Oct 11
Waxing Crescent
Oct 11
First Quarter
Oct 18
Full
Oct 26
Last Quarter
Nov 3
New

Hourly Weather History & Observations

Time (CDT) Temp. Dew Point Humidity Pressure Visibility Wind Dir Wind Speed Gust Speed Precip Events Conditions
12:53 AM 63.0 °F 48.9 °F 60% 29.81 in 10.0 mi SE 10.4 mph - N/A   Clear
1:53 AM 62.1 °F 48.9 °F 62% 29.81 in 10.0 mi SE 12.7 mph - N/A   Clear
2:53 AM 62.1 °F 48.9 °F 62% 29.81 in 10.0 mi SE 15.0 mph - N/A   Partly Cloudy
3:53 AM 61.0 °F 48.9 °F 64% 29.81 in 10.0 mi SE 15.0 mph - N/A   Clear
4:53 AM 60.1 °F 48.9 °F 67% 29.81 in 10.0 mi SE 15.0 mph - N/A   Clear
5:53 AM 59.0 °F 50.0 °F 72% 29.78 in 10.0 mi SE 15.0 mph - N/A   Clear
6:53 AM 57.9 °F 50.0 °F 75% 29.77 in 10.0 mi SE 13.8 mph - N/A   Clear
7:53 AM 57.0 °F 50.0 °F 77% 29.75 in 10.0 mi ESE 12.7 mph - N/A   Clear
8:53 AM 57.0 °F 50.0 °F 77% 29.74 in 10.0 mi SE 13.8 mph 20.7 mph N/A   Clear
9:53 AM 59.0 °F 51.1 °F 75% 29.71 in 10.0 mi ESE 15.0 mph 24.2 mph N/A   Clear
10:53 AM 62.1 °F 52.0 °F 70% 29.70 in 10.0 mi SE 20.7 mph 26.5 mph N/A   Clear
11:53 AM 64.9 °F 53.1 °F 65% 29.66 in 10.0 mi SE 18.4 mph 24.2 mph N/A   Clear
12:53 PM 66.9 °F 53.1 °F 61% 29.62 in 10.0 mi SE 27.6 mph 38.0 mph N/A   Partly Cloudy
1:53 PM 66.9 °F 53.1 °F 61% 29.61 in 10.0 mi SSE 18.4 mph 31.1 mph N/A   Partly Cloudy
2:53 PM 61.0 °F 57.0 °F 87% 29.62 in 2.5 mi SE 10.4 mph 19.6 mph 0.09 in Rain Rain
3:24 PM 60.8 °F 57.2 °F 88% 29.57 in 5.0 mi ESE 17.3 mph 24.2 mph 0.10 in Rain Light Rain
3:53 PM 61.0 °F 57.9 °F 90% 29.57 in 7.0 mi ESE 13.8 mph 25.3 mph 0.11 in Rain Light Rain
4:53 PM 60.1 °F 57.0 °F 90% 29.57 in 10.0 mi ESE 13.8 mph 23.0 mph 0.01 in   Overcast
5:31 PM 59.0 °F 57.2 °F 94% 29.56 in 2.5 mi SE 11.5 mph - 0.08 in Rain Rain
5:34 PM 60.8 °F 57.2 °F 88% 29.56 in 4.0 mi SE 15.0 mph 21.9 mph 0.08 in Rain Light Rain
5:42 PM 60.8 °F 57.2 °F 88% 29.55 in 10.0 mi ESE 15.0 mph 21.9 mph 0.08 in Rain Light Rain
5:53 PM 60.1 °F 57.0 °F 90% 29.54 in 10.0 mi ESE 13.8 mph 23.0 mph 0.08 in   Overcast
6:19 PM 60.8 °F 57.2 °F 88% 29.52 in 10.0 mi SE 18.4 mph 29.9 mph N/A   Overcast
6:53 PM 60.1 °F 57.0 °F 90% 29.51 in 10.0 mi SE 17.3 mph 26.5 mph N/A   Overcast
7:44 PM 60.8 °F 57.2 °F 88% 29.49 in 10.0 mi SE 21.9 mph 31.1 mph 0.00 in Rain Light Rain
7:53 PM 61.0 °F 57.9 °F 90% 29.48 in 5.0 mi SE 20.7 mph 31.1 mph 0.01 in Rain Rain
8:53 PM 60.1 °F 57.9 °F 93% 29.48 in 10.0 mi SSE 19.6 mph - 0.01 in   Unknown
9:53 PM 60.1 °F 57.0 °F 90% 29.49 in 10.0 mi South 13.8 mph - N/A   Mostly Cloudy
10:53 PM 55.9 °F 50.0 °F 80% 29.51 in 10.0 mi South 13.8 mph - N/A   Scattered Clouds
11:04 PM 55.4 °F 50.0 °F 82% 29.51 in 10.0 mi SW 16.1 mph 23.0 mph N/A   Mostly Cloudy
11:53 PM 52.0 °F 46.9 °F 83% 29.53 in 10.0 mi SSW 18.4 mph 31.1 mph N/A   Overcast